Powrót do katalogu

STARLINK-3500

AktywnyŁącznośćVLEO
NORAD 51740·PAYLOAD·🇺🇸 United States

Wystrzelony Feb 21, 2022 z Cape Canaveral Space Force Station

Loading…

Następne Przeloty (najbliższe 24 godziny)

TLE

ŚwieżeSource: CelesTrak SupGP

Epoka: Sep 14, 2026, 20:34 UTC

1 51740C 22016AC  26257.85743056 -.00014221  00000+0 -42018-3 0  2574
2 51740  53.1590 175.7594 0001237  94.3318 255.5148 15.34396393    18

Śledź STARLINK-3500 w czasie rzeczywistym z AllMySat

Download on the App Store